Regional Weather Roundup
Issued by NWS

Home | Current Version | Previous Version | Text Only | Print | Product List | Glossary On
Versions: 1 2 3 4 5 6 7 8 9 10 11 12 13 14 15 16 17 18 19 20 21 22 23 24 25 26 27 28 29 30 31 32 33 34 35 36 37 38 39 40 41 42 43 44 45 46 47 48 49 50
979
ASUS43 KMPX 281410
RWRMN
WEATHER ROUNDUP FOR MINNESOTA
NATIONAL WEATHER SERVICE TWIN CITIES/CHANHASSEN MN
900 AM CDT SAT MAY 28 2016


NOTE: "FAIR" INDICATES FEW OR NO CLOUDS BELOW 12,000 FEET WITH NO
SIGNIFICANT WEATHER AND/OR OBSTRUCTIONS TO VISIBILITY. N/A MEANS
CURRENT SKY AND/OR WEATHER CONDITIONS ARE NOT AVAILABLE.

MNZ060>063-068>070-281500-
   Twin Cities Metro

CITY           SKY/WX    TMP DP  RH WIND       PRES   REMARKS
TWIN CITIES    CLOUDY    62  58  86 NE6       29.76R
ST PAUL        CLOUDY    61  58  90 NE3       29.77R
CRYSTAL        CLOUDY    60  56  86 N3        29.74F
BLAINE         CLOUDY    61  61 100 N6        29.75S FOG
EDEN PRAIRIE   CLOUDY    63  57  81 CALM      29.76R
SOUTH ST PAUL  CLOUDY    62  59  90 N3        29.77R
LAKE ELMO      CLOUDY    61  59  94 CALM      29.79R
$$
MNZ001>005-007-008-013>017-022>024-027-028-281500-
   Northwest Minnesota

CITY           SKY/WX    TMP DP  RH WIND       PRES   REMARKS
BEMIDJI        CLOUDY    56  54  91 NE10      29.81S
HALLOCK        CLOUDY    64  57  77 NE5       29.85S
ROSEAU         CLOUDY    61  55  82 NE5       29.86F
WARROAD        CLOUDY    61  57  88 NE9       29.87S
THIEF RVR FALL CLOUDY    63  54  72 NE7       29.85S
CROOKSTON      SUNNY     64  57  77 NE5       29.84R
FOSSTON        MOSUNNY   61  57  88 NE7       29.84R
DETROIT LAKES  PTSUNNY   61  54  77 NE5       29.82S
MOORHEAD       MOSUNNY   64  55  72 E6        29.82R
PARK RAPIDS    CLOUDY    60  53  77 N8        29.79F
MAHNOMEN       PTSUNNY   61  54  77 E6        29.82R
$$
MNZ006-009>011-018-025>026-281500-
   North Central Minnesota

CITY           SKY/WX    TMP DP  RH WIND       PRES   REMARKS
BAUDETTE       LGT RAIN  60  57  89 N5        29.85S
FLAG ISLAND    CLOUDY    61  57  88 NE9       29.87S
INTL FALLS     CLOUDY    60  56  86 N8        29.84S
WASKISH        CLOUDY    57  55  94 NE9       29.83S
BIG FORK       LGT RAIN  57  55  94 NE5       29.80S
LONGVILLE      CLOUDY    57  55  94 CALM      29.79S
GRAND RAPIDS   CLOUDY    56  55  97 VRB3      29.80R FOG
CRANE LAKE     LGT RAIN  55  54  94 N3        29.82F
ORR            CLOUDY    55  54  94 CALM      29.77F FOG
COOK           CLOUDY    57  55  94 CALM      29.80R FOG
WALKER         CLOUDY    56  54  93 N6        29.80S FOG
$$
MNZ012-019>021-037-281500-
   Northeast Minnesota

CITY           SKY/WX    TMP DP  RH WIND       PRES   REMARKS
DULUTH         FOG       50  49  96 CALM      29.79R VSB 1/2
ELY            CLOUDY    57  55  94 NE6       29.79S FOG
HIBBING        CLOUDY    57  56  96 E5        29.78S
EVELETH        CLOUDY    57  55  94 NE5       29.79R FOG
DULUTH HARBOR  CLOUDY    46  45  93 NE3       29.81S FOG
TWO HARBORS    HAZE      52  46  82 E7        29.78S VSB<1/4
SILVER BAY     FOG       52  52 100 NE8       29.78R VSB 1/4
GRAND MARAIS     N/A     48  47  96 E7        29.79R
G MARAIS ARPRT CLOUDY    55  54  94 N13       29.81S
$$
MNZ029>031-032-039>041-046>048-054>057-064-281500-
   West Central Minnesota

CITY           SKY/WX    TMP DP  RH WIND       PRES   REMARKS
FERGUS FALLS   MOSUNNY   63  54  72 E7        29.77S
WHEATON        CLOUDY    63  57  82 NE9       29.81S
MORRIS         CLOUDY    63  57  82 NE9       29.78R
ALEXANDRIA     CLOUDY    61  55  81 NE7       29.79F
ELBOW LAKE     FAIR      60  55  84 NE8       29.80R
WADENA         PTSUNNY   59  54  82 NE5       29.79S
GLENWOOD       CLOUDY    59  55  88 NE13      29.79R
APPLETON       CLOUDY    63  55  77 E6        29.79R
ORTONVILLE     CLOUDY    61  55  82 MISG      29.79S
MADISON        LGT RAIN  61  57  88 NE7       29.79R
WILLMAR        CLOUDY    59  57  94 NE5       29.80R
$$
MNZ033>034-036-042>043-049>051-058-059-281500-
   Central Minnesota

CITY           SKY/WX    TMP DP  RH WIND       PRES   REMARKS
ST CLOUD       CLOUDY    58  56  93 N9        29.76F
SAUK CENTRE    CLOUDY    58  55  88 NE7       29.79R
PAYNESVILLE    CLOUDY    58  56  94 NE13      29.77F
AITKIN         CLOUDY    59  54  82 CALM      29.77S
PINE RIVER     CLOUDY    57  55  94 N3        29.83S
BRAINERD       CLOUDY    58  55  90 N6        29.78F
STAPLES        CLOUDY    57  54  88 NE3       29.79S
LONG PRAIRIE   CLOUDY    57  55  94 N3        29.79S
LITTLE FALLS   CLOUDY    59  54  82 CALM      29.78F
LITCHFIELD     CLOUDY    61  59  94 NE6       29.78R
BUFFALO        CLOUDY    58  55  92 N5        29.77S
MAPLE LAKE     CLOUDY    58  58  98 N6        29.77R
HUTCHINSON     CLOUDY    60  58  94 NE8       29.77S
$$
MNZ037-044-045-052-053-281500-
   East Central Minnesota

CITY           SKY/WX    TMP DP  RH WIND       PRES   REMARKS
PRINCETON      CLOUDY    57  55  94 NE6       29.78R
MORA           CLOUDY    55  54  94 E5        29.79S
CAMBRIDGE      CLOUDY    57  50  77 N6        29.75S
RUSH CITY      CLOUDY    55  53  92 N7        29.76F
MOOSE LAKE     FOG       52  50  93 CALM      29.77S VSB 1/2
HINCKLEY       CLOUDY    54  54 100 NE6       29.77F FOG
CLOQUET        FOG       52  48  87 CALM      29.79S VSB 1/2
MCGREGOR       CLOUDY    57  55  94 CALM      29.79S
$$
MNZ071>073-080-081-089-090-097-098-281500-
   Southwest Minnesota

CITY           SKY/WX    TMP DP  RH WIND       PRES   REMARKS
MONTEVIDEO     CLOUDY    61  57  88 E6        29.80R
GRANITE FALLS  LGT RAIN  61  59  93 N8        29.78F
CANBY          LGT RAIN  62  60  92 NE6       29.80R
MARSHALL       LGT RAIN  59  58  96 NE6       29.78S
REDWOOD FALLS  HVY RAIN  59  57  93 NE7       29.76S FOG
OLIVIA         LGT RAIN  59  55  88 NE6       29.77R
PIPESTONE      LGT RAIN  61  59  94 NE8       29.75F
WINDOM         LGT RAIN  61  59  94 CALM      29.76R
WORTHINGTON    HVY RAIN  63  61  94 NE5       29.77R FOG
JACKSON        CLOUDY    64  61  88 CALM      29.76R
TRACY          RAIN      60  60  99 NE5       29.77S
SLAYTON        RAIN      60  60 100 NE8       29.77S
$$
MNZ065>067-074>077-082>085-091>093-281500-
   South Central Minnesota

CITY           SKY/WX    TMP DP  RH WIND       PRES   REMARKS
MANKATO        CLOUDY    63  59  88 E9        29.76R
NEW ULM        CLOUDY    61  61 100 E22       29.75R
ST JAMES       LGT RAIN  57  57 100 NE5       29.76R
FAIRMONT       CLOUDY    66  63  88 S8        29.74S
GLENCOE        CLOUDY    60  60  99 N8        29.74F
FARIBAULT      CLOUDY    64  61  88 NE5       29.76F
OWATONNA       CLOUDY    64  61  88 E6        29.76S FOG
WASECA         CLOUDY    63  59  88 E5        29.77S FOG
ALBERT LEA     RAIN      64  63  94 S6        29.76S
$$
MNZ078>079-086>088-094>096-281500-
   Southeast Minnesota

CITY           SKY/WX    TMP DP  RH WIND       PRES   REMARKS
ROCHESTER      CLOUDY    65  64  97 NE3       29.77S FOG
RED WING       CLOUDY    66  63  88 CALM      29.75S
STANTON        CLOUDY    65  62  87 CALM      29.75S FOG
DODGE CENTER   CLOUDY    64  64 100 E6        29.77S FOG
WINONA         CLOUDY    66  64  94 NW5       29.75R FOG
AUSTIN         DRIZZLE   64  63  94 CALM      29.76S
PRESTON        CLOUDY    64  62  94 W3        29.77S
$$
ABBREVIATIONS USED IN REMARKS
   TC - TEMPERATURES IN CELSIUS
  WCI - WIND CHILL INDEX
   HX - HEAT INDEX
  VSB - VISIBILITY
$$




USA.gov is the U.S. government's official web portal to all federal, state and local government web resources and services.